TimeEDT,TemperatureF,Dew PointF,Humidity,Sea Level PressureIn,VisibilityMPH,Wind Direction,Wind SpeedMPH,Gust SpeedMPH,PrecipitationIn,Events,Conditions,WindDirDegrees,DateUTC
12:34 AM,38.1,30.7,75,30.27,10.0,North,5.8,-,N/A,,Clear,350,2012-10-27 04:34:00
1:14 AM,37.4,30.9,77,30.26,10.0,North,6.9,-,N/A,,Clear,350,2012-10-27 05:14:00
1:34 AM,37.2,30.6,77,30.25,10.0,North,5.8,-,N/A,,Clear,360,2012-10-27 05:34:00
1:54 AM,35.8,30.2,80,30.25,10.0,North,6.9,-,N/A,,Clear,360,2012-10-27 05:54:00
2:14 AM,35.2,30.2,82,30.25,10.0,North,4.6,-,N/A,,Clear,360,2012-10-27 06:14:00
2:34 AM,35.1,30.2,82,30.24,10.0,North,5.8,-,N/A,,Clear,360,2012-10-27 06:34:00
2:54 AM,35.6,30.2,81,30.24,10.0,North,5.8,-,N/A,,Clear,360,2012-10-27 06:54:00
3:14 AM,34.7,29.8,82,30.24,10.0,North,6.9,-,N/A,,Clear,10,2012-10-27 07:14:00
3:34 AM,34.9,29.8,82,30.24,10.0,North,5.8,-,N/A,,Clear,360,2012-10-27 07:34:00
3:54 AM,34.9,30.0,82,30.24,10.0,North,4.6,-,N/A,,Clear,350,2012-10-27 07:54:00
4:34 AM,34.9,30.0,82,30.24,10.0,North,3.5,-,N/A,,Clear,360,2012-10-27 08:34:00
4:54 AM,33.4,29.3,85,30.24,10.0,North,4.6,-,N/A,,Clear,360,2012-10-27 08:54:00
5:14 AM,33.6,29.7,85,30.24,10.0,North,3.5,-,N/A,,Clear,360,2012-10-27 09:14:00
5:34 AM,34.0,29.7,84,30.24,10.0,North,3.5,-,N/A,,Clear,350,2012-10-27 09:34:00
5:54 AM,34.7,30.0,83,30.24,10.0,North,3.5,-,N/A,,Clear,360,2012-10-27 09:54:00
6:14 AM,34.3,30.2,85,30.24,10.0,NNW,3.5,-,N/A,,Clear,330,2012-10-27 10:14:00
6:34 AM,34.5,30.2,84,30.24,10.0,NNW,3.5,-,N/A,,Clear,330,2012-10-27 10:34:00
6:54 AM,34.2,30.6,87,30.24,10.0,NNW,3.5,-,N/A,,Clear,330,2012-10-27 10:54:00
7:14 AM,34.2,30.6,87,30.24,10.0,NNW,4.6,-,N/A,,Clear,330,2012-10-27 11:14:00
7:54 AM,34.2,30.4,86,30.24,10.0,NW,4.6,-,N/A,,Clear,320,2012-10-27 11:54:00
8:14 AM,33.8,30.2,87,30.25,10.0,NW,3.5,-,N/A,,Clear,320,2012-10-27 12:14:00
8:34 AM,34.2,30.4,86,30.26,10.0,NW,5.8,-,N/A,,Clear,320,2012-10-27 12:34:00
8:54 AM,34.7,30.7,85,30.26,10.0,NNW,4.6,-,N/A,,Clear,330,2012-10-27 12:54:00
9:14 AM,35.8,31.1,83,30.26,10.0,North,3.5,-,N/A,,Clear,350,2012-10-27 13:14:00
9:34 AM,37.9,31.8,79,30.26,10.0,North,3.5,-,N/A,,Clear,350,2012-10-27 13:34:00
10:14 AM,40.8,32.0,71,30.25,10.0,North,6.9,-,N/A,,Clear,10,2012-10-27 14:14:00
10:34 AM,41.9,32.0,68,30.25,10.0,North,5.8,-,N/A,,Clear,350,2012-10-27 14:34:00
10:54 AM,43.2,32.7,67,30.25,10.0,North,6.9,-,N/A,,Clear,10,2012-10-27 14:54:00
11:34 AM,44.6,32.4,62,30.25,10.0,North,11.5,-,N/A,,Clear,10,2012-10-27 15:34:00
11:54 AM,46.4,32.2,58,30.25,10.0,NNW,8.1,-,N/A,,Clear,340,2012-10-27 15:54:00
12:14 PM,46.8,32.0,57,30.24,10.0,North,10.4,-,N/A,,Clear,10,2012-10-27 16:14:00
12:34 PM,46.9,31.5,55,30.24,10.0,North,9.2,-,N/A,,Clear,360,2012-10-27 16:34:00
12:54 PM,48.4,32.5,54,30.23,10.0,North,6.9,-,N/A,,Clear,350,2012-10-27 16:54:00
1:14 PM,48.4,31.6,52,30.22,10.0,NNW,4.6,-,N/A,,Clear,340,2012-10-27 17:14:00
1:34 PM,48.0,31.6,53,30.21,10.0,North,8.1,-,N/A,,Scattered Clouds,10,2012-10-27 17:34:00
1:54 PM,48.9,30.9,50,30.21,10.0,North,8.1,-,N/A,,Scattered Clouds,350,2012-10-27 17:54:00
2:14 PM,49.8,31.3,49,30.20,10.0,Calm,Calm,-,N/A,,Scattered Clouds,0,2012-10-27 18:14:00
2:34 PM,49.6,30.7,48,30.19,10.0,North,9.2,-,N/A,,Scattered Clouds,10,2012-10-27 18:34:00
2:54 PM,50.2,31.1,48,30.19,10.0,NNE,9.2,-,N/A,,Scattered Clouds,20,2012-10-27 18:54:00
3:14 PM,50.2,30.6,47,30.18,10.0,NNE,8.1,-,N/A,,Scattered Clouds,30,2012-10-27 19:14:00
3:34 PM,50.5,29.7,45,30.17,10.0,North,4.6,-,N/A,,Scattered Clouds,10,2012-10-27 19:34:00
3:54 PM,48.9,30.4,49,30.17,10.0,North,8.1,-,N/A,,Scattered Clouds,350,2012-10-27 19:54:00
4:14 PM,50.7,30.0,45,30.17,10.0,North,5.8,-,N/A,,Scattered Clouds,350,2012-10-27 20:14:00
4:34 PM,50.2,29.3,45,30.18,10.0,North,4.6,-,N/A,,Scattered Clouds,10,2012-10-27 20:34:00
4:54 PM,49.3,28.9,45,30.18,10.0,NNW,5.8,-,N/A,,Scattered Clouds,340,2012-10-27 20:54:00
5:14 PM,50.0,29.5,45,30.18,10.0,NNE,3.5,-,N/A,,Mostly Cloudy,30,2012-10-27 21:14:00
5:34 PM,49.1,29.5,47,30.17,10.0,NNE,10.4,-,N/A,,Scattered Clouds,30,2012-10-27 21:34:00
5:54 PM,48.0,30.2,50,30.17,10.0,North,5.8,-,N/A,,Clear,360,2012-10-27 21:54:00
6:14 PM,46.8,30.2,53,30.19,10.0,NNE,6.9,-,N/A,,Clear,20,2012-10-27 22:14:00
6:34 PM,45.3,29.8,55,30.19,10.0,North,8.1,-,N/A,,Clear,10,2012-10-27 22:34:00
6:54 PM,43.3,30.4,60,30.19,10.0,North,6.9,-,N/A,,Scattered Clouds,10,2012-10-27 22:54:00
7:14 PM,42.1,30.2,63,30.19,10.0,NNE,6.9,-,N/A,,Clear,20,2012-10-27 23:14:00
7:34 PM,42.4,29.7,61,30.21,10.0,North,4.6,-,N/A,,Clear,10,2012-10-27 23:34:00
7:54 PM,41.9,29.3,61,30.22,10.0,NNE,3.5,-,N/A,,Mostly Cloudy,20,2012-10-27 23:54:00
8:14 PM,42.1,29.5,61,30.22,10.0,North,4.6,-,N/A,,Overcast,360,2012-10-28 00:14:00
8:34 PM,42.3,29.1,60,30.22,10.0,North,6.9,-,N/A,,Mostly Cloudy,10,2012-10-28 00:34:00
8:54 PM,41.0,28.8,62,30.22,10.0,North,6.9,-,N/A,,Clear,10,2012-10-28 00:54:00
9:14 PM,39.0,29.1,68,30.22,10.0,NNE,9.2,-,N/A,,Clear,20,2012-10-28 01:14:00
9:54 PM,38.8,28.6,67,30.22,10.0,NNE,6.9,-,N/A,,Clear,20,2012-10-28 01:54:00
10:14 PM,38.5,28.6,68,30.23,10.0,NNE,9.2,-,N/A,,Clear,20,2012-10-28 02:14:00
10:34 PM,38.1,29.1,70,30.23,10.0,NNE,9.2,-,N/A,,Clear,20,2012-10-28 02:34:00
10:54 PM,38.5,29.3,70,30.24,10.0,NNE,10.4,-,N/A,,Scattered Clouds,20,2012-10-28 02:54:00
11:34 PM,39.0,30.7,72,30.25,10.0,NNE,8.1,-,N/A,,Overcast,20,2012-10-28 03:34:00
11:54 PM,37.8,30.9,76,30.24,10.0,North,6.9,-,N/A,,Overcast,10,2012-10-28 03:54:00